Location: Maiden
(35.5760°N, 81.2120°W)
Time: 03:02:29
(UTC-04:00)

Vanguard 2 - Pass Details

Date: 09 August 2020
Orbit: 553 x 2937 km, 32.9° (Epoch: 20 September)

Event Time Altitude Azimuth Distance (km) Brightness Sun altitude
Rises 01:52:22 0° 276° (W) 5,970 12.1 -38.5°
Reaches altitude 10° 01:56:54 10° 274° (W) 4,610 11.4 -38.3°
Enters shadow 02:01:41 25° 270° (W) 3,134 10.4 -38.2°
Maximum altitude 02:08:35 67° 196° (SSW) 1,512 - -37.9°
Drops below altitude 10° 02:15:23 10° 115° (ESE) 2,781 - -37.6°
Sets 02:17:30 0° 112° (ESE) 3,511 - -37.5°
